sat.trackr.live / text

‹ back to catalog

STARLINK-32013

NORAD 60103 · 2024-117N

PAYLOAD ACTIVE UNKNOWN

§ Identity

Operator
Country
US
Launch date
2024-06-23
Launch site
AFETR
Launch vehicle
Mass (kg)
RCS (m²)

Purposes: comms

External: N2YO · Heavens-Above · Gunter

§ Orbital elements

Epoch: 2026-09-21T05:06:12.534912Z

Period
93.85 min
Inclination
53.1571°
Eccentricity
0.0001716
Mean motion
15.34430317 rev/d
Perigee alt
461.4 km
Apogee alt
463.8 km
Semi-major
6,840.8 km
B*
-2.0286e-4
RAAN
206.6918°
Arg perigee
78.0037°
Mean anomaly
282.1158°
Rev number
12,685

§ Raw data

STARLINK-320131 60103U 24117N   26264.21264508 -.00007231  00000+0 -20286-3 0  99982 60103  53.1571 206.6918 0001716  78.0037 282.1158 15.34430317126856

JSON: /api/v1/satellites/60103 · /tle

For live sub-satellite position, see the globe view (requires WebGL).

§ Visibility from observer

Set your observer location to see the next 7 days of passes ≥ 10°. The values pass through the URL so the page stays shareable.

No JS? Fill the form by hand. The geolocation button needs JavaScript.